Weather History for KELZ - March, 2012

Change the Weather History Date:

Thursday, March 29, 2012

  Actual Average (KBFD) Record (KBFD)
Temperature  
Mean Temperature 34 °F 37 °F  
Max Temperature 39 °F 47 °F 74 °F (1977)
Min Temperature 30 °F 26 °F 5 °F (2015)
Degree Days  
Heating Degree Days 30 23  
Month to date heating degree days 815  
Since 1 July heating degree days 6385  
Cooling Degree Days 0 0  
Month to date cooling degree days 0  
Year to date cooling degree days 0  
Moisture  
Dew Point 29 °F    
Average Humidity 81    
Maximum Humidity 93    
Minimum Humidity 69    
Precipitation  
Precipitation 0.02 in 0.11 in 0.49 in (1984)
Month to date precipitation 3.13  
Year to date precipitation 8.77  
Sea Level Pressure  
Sea Level Pressure 29.93 in    
Wind  
Wind Speed 15 mph (NW)    
Max Wind Speed 22 mph    
Max Gust Speed 32 mph    
Visibility 9 miles    
Events Fog , Rain , Snow    
T = Trace of Precipitation, MM = Missing Value Source: NWS Daily Summary

Daily Weather History Graph

Daily Weather History Graph

Search for Another Location

Airport or City:

Trip Planner

Search our weather history database for the weather conditions in past years. The results will help you decide how hot, cold, wet, or windy it might be!

Date:

Astronomy

Mar. 29, 2012 Rise Set
Actual Time 6:58 AM EDT 7:34 PM EDT
Civil Twilight 6:30 AM EDT 8:02 PM EDT
Nautical Twilight 5:57 AM EDT 8:36 PM EDT
Astronomical Twilight 5:23 AM EDT 9:10 PM EDT
Moon 11:00 AM EDT (3/29) 1:29 AM EDT (3/29)
Length of Visible Light 13h 32m
Length of Day
12h 35m
Waxing Crescent, 39% of the Moon is Illuminated
Mar 29
Waxing Crescent
Mar 30
First Quarter
Apr 6
Full
Apr 13
Last Quarter
Apr 21
New

Hourly Weather History & Observations

Time (EDT) Temp. Windchill Dew Point Humidity Pressure Visibility Wind Dir Wind Speed Gust Speed Precip Events Conditions
12:40 AM 39.2 °F 32.0 °F 35.6 °F 87% 29.76 in 6.0 mi NW 11.5 mph 26.5 mph 0.00 in Rain Light Rain
12:54 AM 39.2 °F 29.3 °F 35.6 °F 87% 29.75 in 10.0 mi WNW 20.7 mph 26.5 mph 0.00 in Rain Light Rain
12:56 AM 39.0 °F 29.6 °F 34.0 °F 82% 29.76 in 10.0 mi WNW 18.4 mph 25.3 mph 0.00 in Rain Light Rain
1:17 AM 37.4 °F 27.8 °F 33.8 °F 87% 29.76 in 10.0 mi NW 17.3 mph 24.2 mph 0.00 in Rain Light Rain
1:56 AM 37.9 °F 30.5 °F 33.1 °F 83% 29.77 in 10.0 mi NW 11.5 mph 20.7 mph 0.00 in   Overcast
2:21 AM 37.4 °F 28.9 °F 32.0 °F 81% 29.76 in 10.0 mi WNW 13.8 mph - N/A   Overcast
2:56 AM 37.0 °F 26.2 °F 30.9 °F 79% 29.77 in 10.0 mi NW 21.9 mph 32.2 mph 0.01 in   Overcast
3:25 AM 35.6 °F 24.2 °F 30.2 °F 81% 29.77 in 10.0 mi WNW 21.9 mph 31.1 mph N/A   Overcast
3:56 AM 36.0 °F 25.6 °F 30.9 °F 82% 29.79 in 10.0 mi NW 18.4 mph 31.1 mph N/A   Overcast
4:56 AM 35.1 °F 24.5 °F 30.9 °F 85% 29.81 in 10.0 mi NW 18.4 mph 26.5 mph 0.00 in Rain Light Rain
5:41 AM 35.6 °F 26.6 °F 30.2 °F 81% 29.82 in 10.0 mi NW 13.8 mph - 0.00 in   Overcast
5:56 AM 35.1 °F 24.8 °F 30.9 °F 85% 29.84 in 10.0 mi WNW 17.3 mph 27.6 mph 0.00 in   Overcast
6:33 AM 35.6 °F 26.6 °F 30.2 °F 81% 29.83 in 10.0 mi NW 13.8 mph 25.3 mph 0.00 in   Overcast
6:56 AM 35.1 °F 25.9 °F 30.9 °F 85% 29.87 in 10.0 mi NW 13.8 mph 26.5 mph 0.00 in   Overcast
7:56 AM 34.0 °F 27.2 °F 28.9 °F 82% 29.91 in 10.0 mi NW 8.1 mph - 0.00 in   Overcast
8:56 AM 34.0 °F 25.0 °F 28.9 °F 82% 29.94 in 10.0 mi NW 12.7 mph 18.4 mph N/A   Overcast
9:56 AM 33.1 °F 21.9 °F 28.9 °F 85% 29.97 in 10.0 mi NW 18.4 mph 25.3 mph N/A   Overcast
10:56 AM 33.1 °F 23.0 °F 28.9 °F 85% 29.99 in 9.0 mi NW 15.0 mph - 0.00 in   Overcast
11:56 AM 34.0 °F 24.2 °F 30.0 °F 85% 30.01 in 5.0 mi NW 15.0 mph 21.9 mph 0.00 in Snow Light Snow
12:04 PM 33.8 °F 24.8 °F 30.2 °F 87% 29.96 in 3.0 mi WNW 12.7 mph 21.9 mph 0.00 in Snow Light Snow
12:43 PM 33.8 °F 24.3 °F 30.2 °F 87% 29.97 in 1.8 mi NNW 13.8 mph 21.9 mph 0.00 in Snow Light Snow
12:56 PM 33.1 °F 24.4 °F 30.0 °F 89% 30.02 in 0.5 mi NW 11.5 mph - 0.00 in Fog , Snow Snow
1:08 PM 33.8 °F 24.8 °F 30.2 °F 87% 29.97 in 1.0 mi NW 12.7 mph - 0.01 in Snow Light Snow
1:14 PM 35.6 °F 26.6 °F 33.8 °F 93% 29.97 in 3.0 mi NW 13.8 mph - 0.01 in Snow Light Snow
1:56 PM 33.1 °F 23.4 °F 28.9 °F 85% 30.04 in 10.0 mi NW 13.8 mph 23.0 mph 0.01 in   Overcast
2:29 PM 33.8 °F 25.8 °F 28.4 °F 81% 29.98 in 10.0 mi NW 10.4 mph 19.6 mph 0.00 in   Overcast
2:56 PM 35.1 °F 25.9 °F 28.0 °F 76% 30.04 in 10.0 mi NNW 13.8 mph - 0.00 in   Overcast
3:56 PM 35.1 °F 26.4 °F 27.0 °F 72% 30.04 in 10.0 mi NW 12.7 mph 19.6 mph N/A   Overcast
4:56 PM 35.1 °F 25.2 °F 26.1 °F 70% 30.06 in 10.0 mi NW 16.1 mph - N/A   Overcast
5:56 PM 34.0 °F 25.5 °F 25.0 °F 70% 30.06 in 10.0 mi NNW 11.5 mph - N/A   Overcast
6:56 PM 33.1 °F 26.1 °F 24.1 °F 70% 30.06 in 10.0 mi NNW 8.1 mph - N/A   Overcast
7:56 PM 33.1 °F 24.9 °F 24.1 °F 70% 30.08 in 10.0 mi NW 10.4 mph - N/A   Overcast
8:56 PM 32.0 °F 24.2 °F 24.1 °F 73% 30.11 in 10.0 mi NW 9.2 mph - N/A   Overcast
9:56 PM 32.0 °F 24.8 °F 23.0 °F 69% 30.12 in 10.0 mi NW 8.1 mph - N/A   Overcast
10:56 PM 30.9 °F 22.2 °F 21.9 °F 69% 30.12 in 10.0 mi NW 10.4 mph - N/A   Overcast
11:56 PM 30.9 °F 24.3 °F 21.9 °F 69% 30.12 in 10.0 mi NNW 6.9 mph - N/A   Overcast